Voltar ao catálogo

YIZHENG 1

AtivoMilitarSSO
NORAD 44886·PAYLOAD·🇨🇳 China
Este nome de satélite ainda não foi confirmado por fontes oficiais.

Lançado Dec 20, 2019 de Taiyuan Satellite Launch Center

Loading…

Próximas Passagens (próximas 24 horas)

TLE

AtualizadoSource: Space-Track

Época: Sep 14, 2026, 14:34 UTC

1 44886U 19093H   26257.60756253  .00002631  00000-0  24244-3 0  9999
2 44886  97.7992 345.3201 0013007 122.2703 237.9779 14.95512752365549

Acompanhe YIZHENG 1 em tempo real com AllMySat

Download on the App Store